FW2462 Weather Reports


Display with metric or nautical units.
time (UTC)temp
F
wind
direction
speed
MPH
gust
MPH
rain 1hr
in
rain 24hr
in
rain mn
in
humidity
%
barometer
mb
20260507194730 57 41 1.0 6.0 0.07 0.28 0.18 99 1013.2
20260507194225 56 65 2.0 8.0 0.05 0.26 0.17 99 1013.0
20260507193719 56 30 3.0 10.0 0.01 0.22 0.12 98 1013.2
20260507193212 56 46 2.0 10.0 0.01 0.22 0.12 98 1013.2
20260507192931 56 23 2.0 6.0 0.00 0.21 0.11 98 1013.1
20260507192201 56 351 1.0 5.0 0.00 0.21 0.11 98 1013.0
20260507191655 56 54 1.0 4.0 0.00 0.21 0.11 98 1012.9
20260507191151 57 54 1.0 4.0 0.00 0.21 0.11 98 1012.7
20260507190643 57 357 1.0 4.0 0.00 0.21 0.11 98 1012.9
20260507190401 57 30 1.0 4.0 0.00 0.21 0.11 98 1013.0
20260507185637 57 27 1.0 7.0 0.00 0.21 0.11 98 1013.2
20260507185137 57 262 2.0 9.0 0.00 0.21 0.11 98 1013.2
20260507184637 58 76 2.0 9.0 0.00 0.21 0.11 98 1012.9
20260507184133 58 317 1.0 5.0 0.00 0.21 0.11 98 1013.0
20260507183633 58 20 2.0 13.0 0.00 0.21 0.11 98 1013.0
20260507183134 58 53 3.0 13.0 0.00 0.21 0.11 98 1013.0
20260507182637 59 341 2.0 7.0 0.00 0.21 0.11 98 1013.1
20260507182359 59 58 1.0 7.0 0.00 0.21 0.11 98 1013.0
20260507181633 59 47 1.0 10.0 0.00 0.21 0.11 98 1013.0
20260507181131 59 46 1.0 10.0 0.00 0.21 0.11 98 1012.9
20260507180629 59 98 2.0 8.0 0.00 0.21 0.11 98 1012.9
20260507180130 59 63 2.0 8.0 0.00 0.21 0.11 98 1013.1
20260507175629 59 58 1.0 7.0 0.00 0.21 0.11 98 1013.0
20260507175129 59 27 1.0 8.0 0.01 0.21 0.11 98 1013.1
20260507174855 59 347 2.0 8.0 0.01 0.21 0.11 98 1013.1
20260507174128 59 49 2.0 7.0 0.02 0.21 0.11 98 1013.1
20260507173626 60 344 1.0 5.0 0.04 0.22 0.11 98 1013.1
20260507173126 60 10 2.0 7.0 0.05 0.22 0.11 98 1013.1
20260507172621 60 53 2.0 9.0 0.05 0.22 0.11 98 1013.2
20260507172111 60 41 2.0 9.0 0.06 0.22 0.11 98 1013.2
20260507171606 61 56 1.0 6.0 0.07 0.22 0.11 98 1013.3
20260507171105 61 355 1.0 5.0 0.07 0.23 0.11 98 1013.3
20260507170605 61 46 1.0 5.0 0.07 0.23 0.11 98 1013.2
20260507170119 61 77 0.0 3.0 0.07 0.23 0.11 98 1013.2
20260507170107 61 114 1.0 5.0 0.07 0.23 0.11 98 1013.1
20260507165106 61 70 1.0 8.0 0.06 0.22 0.10 98 1013.0
20260507164609 61 67 2.0 8.0 0.06 0.22 0.10 98 1013.0
20260507164108 61 354 1.0 4.0 0.05 0.21 0.09 98 1012.8
20260507163608 61 56 0.0 2.0 0.03 0.19 0.07 98 1012.9
20260507163108 61 348 0.0 2.0 0.02 0.18 0.06 98 1012.9
20260507162603 61 3 0.0 4.0 0.02 0.18 0.06 98 1012.9
20260507162327 61 12 0.0 4.0 0.01 0.17 0.05 98 1012.8
20260507161821 61 81 0.0 3.0 0.00 0.16 0.04 98 1012.8
20260507161104 61 6 0.0 2.0 0.00 0.16 0.04 98 1012.8
20260507160604 61 25 0.0 2.0 0.00 0.16 0.04 98 1012.9
20260507160104 61 7 0.0 2.0 0.00 0.16 0.04 98 1013.0
20260507155604 61 359 0.0 4.0 0.00 0.16 0.04 98 1013.1
20260507155101 61 331 0.0 4.0 0.00 0.16 0.04 98 1013.1
20260507154822 61 30 0.0 4.0 0.00 0.16 0.04 98 1012.8
20260507154101 61 1 0.0 3.0 0.00 0.16 0.04 98 1012.8
20260507153824 61 4 0.0 3.0 0.00 0.16 0.04 98 1012.9
20260507152601 61 5 0.0 3.0 0.00 0.16 0.04 98 1013.1
20260507151601 61 15 0.0 3.0 0.00 0.17 0.04 98 1013.3
20260507151100 61 20 0.0 3.0 0.00 0.17 0.04 98 1013.2
20260507150559 61 17 0.0 3.0 0.00 0.17 0.04 98 1013.2
20260507150056 61 8 1.0 3.0 0.00 0.17 0.04 98 1013.2
20260507145557 61 62 0.0 4.0 0.00 0.17 0.04 98 1013.0
20260507145322 61 8 0.0 4.0 0.00 0.17 0.04 98 1013.2
20260507144554 61 25 0.0 5.0 0.00 0.17 0.04 98 1013.3
20260507144055 61 342 0.0 5.0 0.00 0.17 0.04 98 1013.1
20260507143549 62 7 0.0 1.0 0.00 0.17 0.04 98 1013.1
20260507143044 62 357 0.0 2.0 0.00 0.17 0.04 98 1013.1
20260507142755 62 13 0.0 2.0 0.00 0.17 0.04 98 1012.7
20260507142032 62 40 0.0 3.0 0.00 0.17 0.04 98 1012.9
20260507141526 62 40 1.0 3.0 0.00 0.17 0.04 98 1013.1
20260507141020 62 344 1.0 4.0 0.00 0.17 0.04 98 1012.8
20260507140513 63 336 0.0 4.0 0.00 0.17 0.04 99 1012.5
20260507140007 63 30 0.0 2.0 0.00 0.17 0.04 99 1012.4
20260507135502 63 89 0.0 4.0 0.00 0.17 0.04 99 1012.6
20260507134955 63 326 0.0 4.0 0.00 0.17 0.04 99 1012.6
20260507134450 64 8 0.0 2.0 0.01 0.17 0.04 99 1012.7
20260507133943 64 340 0.0 2.0 0.01 0.17 0.04 99 1012.6
20260507133438 64 41 0.0 0.0 0.01 0.17 0.04 99 1012.6
20260507132932 64 41 0.0 0.0 0.01 0.17 0.04 99 1012.7
20260507132431 63 40 0.0 0.0 0.01 0.17 0.04 99 1012.4
20260507131426 63 94 0.0 1.0 0.01 0.17 0.04 99 1012.9
20260507130926 63 128 0.0 1.0 0.01 0.17 0.04 99 1013.3
20260507130426 63 205 0.0 1.0 0.01 0.17 0.04 99 1013.4
20260507125927 62 205 0.0 1.0 0.01 0.17 0.04 99 1013.2
20260507125425 62 197 0.0 2.0 0.01 0.17 0.04 99 1013.3
20260507124925 62 342 0.0 2.0 0.02 0.17 0.04 99 1013.5
20260507124427 62 273 0.0 1.0 0.01 0.16 0.03 99 1013.8
20260507124150 62 178 0.0 1.0 0.01 0.16 0.03 99 1013.8
20260507123421 62 229 0.0 1.0 0.01 0.16 0.03 99 1014.1
20260507122926 62 250 0.0 1.0 0.01 0.16 0.03 99 1014.0
20260507122640 62 233 0.0 3.0 0.01 0.16 0.03 99 1014.0
20260507121921 62 16 0.0 3.0 0.01 0.16 0.03 99 1014.1
20260507120921 62 217 1.0 4.0 0.01 0.16 0.03 99 1013.7
20260507120423 62 225 0.0 3.0 0.01 0.16 0.03 99 1013.7
20260507115416 62 206 1.0 4.0 0.01 0.16 0.03 99 1013.2
20260507114910 62 226 1.0 3.0 0.00 0.15 0.02 99 1013.4
20260507114404 62 210 1.0 3.0 0.00 0.15 0.02 99 1013.7
20260507113858 62 195 1.0 2.0 0.00 0.15 0.02 99 1013.4
20260507113618 62 207 1.0 2.0 0.00 0.15 0.02 99 1013.5
20260507113112 62 176 0.0 2.0 0.00 0.15 0.02 99 1013.1
20260507112340 62 199 0.0 0.0 0.00 0.15 0.02 99 1012.9
20260507111835 62 199 0.0 0.0 0.00 0.15 0.02 99 1012.8
20260507111328 62 257 0.0 0.0 0.00 0.15 0.02 99 1013.1
20260507110822 62 257 0.0 0.0 0.00 0.15 0.02 99 1013.1
20260507110316 62 257 0.0 0.0 0.00 0.15 0.02 99 1013.0
20260507105810 62 257 0.0 0.0 0.00 0.15 0.02 99 1012.9
20260507105306 62 257 0.0 0.0 0.00 0.15 0.02 99 1012.9
20260507104758 62 257 0.0 0.0 0.00 0.15 0.02 99 1012.8
20260507104252 62 257 0.0 0.0 0.00 0.15 0.02 99 1013.0
20260507103746 62 257 0.0 1.0 0.00 0.15 0.02 99 1013.0
20260507103242 62 257 0.0 1.0 0.00 0.15 0.02 99 1013.0
20260507102734 62 257 0.0 3.0 0.00 0.15 0.02 99 1012.8
20260507102228 62 218 1.0 3.0 0.00 0.15 0.02 99 1012.7
20260507101723 62 217 1.0 3.0 0.00 0.15 0.02 99 1012.6
20260507101216 62 198 1.0 3.0 0.00 0.15 0.02 99 1012.6
20260507100710 62 213 1.0 3.0 0.00 0.15 0.02 99 1012.5
20260507100204 62 211 1.0 3.0 0.00 0.15 0.02 99 1012.6
20260507095658 62 212 0.0 2.0 0.00 0.15 0.02 99 1012.6
20260507095152 62 169 1.0 3.0 0.00 0.15 0.02 99 1012.6
20260507094645 62 214 0.0 3.0 0.00 0.15 0.02 99 1012.6
20260507094356 62 200 0.0 2.0 0.00 0.15 0.02 99 1012.5
20260507093633 62 207 0.0 2.0 0.00 0.15 0.02 99 1012.5
20260507093358 62 239 0.0 1.0 0.00 0.15 0.02 99 1012.3
20260507092622 62 239 0.0 1.0 0.00 0.15 0.02 99 1012.3
20260507092346 62 241 0.0 1.0 0.00 0.15 0.02 99 1012.3
20260507091610 62 204 0.0 0.0 0.00 0.15 0.02 99 1012.3
20260507091104 62 204 0.0 1.0 0.00 0.15 0.02 99 1012.6
20260507090558 62 206 0.0 2.0 0.00 0.15 0.02 99 1012.9
20260507090055 62 207 0.0 2.0 0.00 0.15 0.02 99 1013.0
20260507085815 62 210 0.0 2.0 0.00 0.15 0.02 99 1012.9
20260507085054 62 226 0.0 1.0 0.00 0.15 0.02 99 1012.9
20260507084558 62 228 0.0 1.0 0.00 0.15 0.02 99 1013.0
20260507084044 62 281 0.0 0.0 0.00 0.15 0.02 99 1013.0
20260507083312 62 281 0.0 2.0 0.00 0.15 0.02 99 1013.0
20260507082551 62 281 0.0 2.0 0.00 0.15 0.02 99 1012.9
20260507082310 62 167 0.0 2.0 0.00 0.15 0.02 99 1012.9
20260507081550 62 184 0.0 2.0 0.00 0.15 0.02 99 1012.7
20260507081049 62 218 0.0 1.0 0.00 0.15 0.02 99 1012.7
20260507080808 62 220 0.0 1.0 0.00 0.15 0.02 99 1012.9
20260507080049 62 236 0.0 1.0 0.00 0.15 0.02 99 1012.8
20260507075551 62 238 0.0 1.0 0.00 0.15 0.02 99 1012.9
20260507075528 62 300 0.0 1.0 0.00 0.15 0.02 99 1012.8
20260507074808 62 210 0.0 1.0 0.00 0.15 0.02 99 1012.6
20260507074045 62 217 0.0 1.0 0.00 0.15 0.02 99 1012.6
20260507073545 62 217 0.0 1.0 0.00 0.15 0.02 98 1012.7
20260507073046 62 231 0.0 1.0 0.00 0.15 0.02 99 1012.7
20260507072545 62 207 0.0 3.0 0.00 0.15 0.02 98 1012.9
20260507072046 62 180 0.0 3.0 0.00 0.15 0.02 98 1013.1
20260507071546 62 205 0.0 1.0 0.00 0.15 0.02 98 1013.1
20260507071046 62 46 0.0 1.0 0.00 0.15 0.02 98 1013.0
20260507070806 62 46 0.0 2.0 0.00 0.15 0.02 98 1013.3
20260507070046 62 44 0.0 2.0 0.00 0.15 0.02 98 1013.5
20260507065545 62 174 0.0 3.0 0.00 0.15 0.02 98 1013.3
20260507065045 62 179 0.0 3.0 0.00 0.15 0.02 98 1013.0
20260507064545 63 288 1.0 6.0 0.00 0.15 0.02 98 1013.0
20260507064046 63 258 2.0 6.0 0.00 0.15 0.02 98 1013.0
20260507063815 63 155 1.0 6.0 0.00 0.15 0.02 98 1013.1
20260507063308 63 203 2.0 6.0 0.00 0.15 0.02 98 1013.1
20260507062545 63 167 2.0 6.0 0.00 0.15 0.02 98 1013.1
20260507062044 63 207 2.0 5.0 0.00 0.15 0.02 98 1013.1
20260507061545 63 205 2.0 5.0 0.00 0.15 0.02 98 1013.3
20260507061046 63 195 2.0 7.0 0.00 0.15 0.02 98 1013.7
20260507060811 63 127 2.0 7.0 0.02 0.15 0.02 98 1014.2
20260507060044 63 217 1.0 6.0 0.02 0.15 0.02 98 1014.3
20260507055541 63 243 1.0 4.0 0.02 0.15 0.02 98 1014.5
20260507055042 63 219 1.0 4.0 0.02 0.15 0.02 98 1014.7
20260507054541 63 199 2.0 6.0 0.02 0.15 0.02 98 1014.6
20260507054300 63 212 2.0 6.0 0.02 0.15 0.02 98 1014.4
20260507053540 64 160 2.0 6.0 0.02 0.15 0.02 98 1014.7
20260507053306 64 204 2.0 5.0 0.02 0.15 0.02 98 1015.0
20260507052808 64 248 2.0 5.0 0.02 0.15 0.02 98 1014.9
20260507052305 64 246 2.0 6.0 0.02 0.15 0.02 98 1015.1
20260507051801 64 139 2.0 6.0 0.02 0.15 0.02 98 1015.1
20260507051027 64 186 2.0 7.0 0.02 0.15 0.02 98 1015.3
20260507050522 64 227 2.0 7.0 0.00 0.13 0.00 98 1015.0
20260507050014 64 197 1.0 5.0 0.00 0.13 0.00 98 1015.8
20260507045509 64 179 1.0 4.0 0.00 0.13 0.00 98 1015.3
20260507045002 64 173 1.0 5.0 0.00 0.13 0.00 98 1015.3
20260507044943 64 216 1.0 5.0 0.00 0.13 0.00 98 1015.3
20260507043958 64 287 1.0 4.0 0.00 0.13 0.00 98 1015.4
20260507043458 64 264 1.0 4.0 0.00 0.13 0.00 98 1015.2
20260507042956 64 161 1.0 5.0 0.00 0.13 0.00 98 1014.9
20260507042456 65 123 1.0 5.0 0.00 0.13 0.00 98 1014.9
20260507041955 65 153 1.0 4.0 0.01 0.13 0.00 98 1014.9
20260507041450 65 259 1.0 4.0 0.02 0.13 0.00 98 1015.1
20260507040950 65 202 1.0 7.0 0.02 0.13 0.00 98 1014.9
20260507040450 65 184 2.0 7.0 0.02 0.13 0.00 98 1014.9
20260507040207 65 222 2.0 7.0 0.04 0.13 0.13 98 1015.0
20260507035715 65 311 2.0 7.0 0.04 0.13 0.13 98 1014.8
20260507034948 65 206 2.0 6.0 0.05 0.13 0.13 98 1014.9
20260507034449 65 212 3.0 6.0 0.05 0.13 0.13 98 1014.3
20260507033945 65 157 3.0 6.0 0.06 0.13 0.13 98 1014.2
20260507033445 65 186 2.0 4.0 0.06 0.13 0.13 98 1014.5
20260507032946 65 152 2.0 4.0 0.06 0.13 0.13 98 1014.2
20260507032445 65 84 2.0 7.0 0.06 0.13 0.13 98 1013.2
20260507031945 65 197 3.0 7.0 0.05 0.12 0.12 98 1015.4
20260507031438 65 238 4.0 7.0 0.04 0.11 0.12 98 1015.8
20260507030931 65 226 3.0 8.0 0.04 0.11 0.11 98 1015.9
20260507030426 65 189 3.0 7.0 0.03 0.10 0.11 98 1015.7
20260507025919 65 113 3.0 8.0 0.02 0.09 0.09 98 1015.7
20260507025413 65 152 2.0 8.0 0.03 0.09 0.09 98 1015.8
20260507025128 65 210 2.0 7.0 0.02 0.08 0.08 98 1015.8
20260507024401 65 184 2.0 7.0 0.02 0.08 0.08 98 1015.9
20260507023856 65 110 1.0 6.0 0.01 0.07 0.07 98 1015.7
20260507023350 65 177 1.0 5.0 0.01 0.07 0.07 98 1015.4
20260507022844 65 193 1.0 4.0 0.01 0.07 0.07 98 1015.1
20260507022338 65 231 1.0 3.0 0.01 0.07 0.07 98 1014.8
20260507021831 65 214 1.0 2.0 0.01 0.07 0.07 98 1014.6
20260507021326 65 202 1.0 4.0 0.01 0.07 0.07 98 1014.7
20260507020820 65 143 1.0 4.0 0.02 0.07 0.07 97 1014.8
20260507020314 65 235 1.0 4.0 0.02 0.07 0.07 97 1014.9
20260507015808 65 276 1.0 4.0 0.02 0.06 0.06 97 1015.0
20260507015301 65 252 1.0 4.0 0.02 0.06 0.06 97 1014.9
20260507014756 65 256 1.0 4.0 0.02 0.06 0.06 97 1014.9
20260507014249 65 150 2.0 5.0 0.02 0.06 0.06 97 1014.6
20260507013743 65 217 2.0 5.0 0.02 0.06 0.06 97 1014.6
20260507013237 65 201 1.0 5.0 0.03 0.06 0.06 97 1014.6
20260507012731 65 205 2.0 5.0 0.03 0.06 0.06 97 1014.3
20260507012225 65 238 2.0 5.0 0.03 0.06 0.06 97 1014.2
20260507011719 65 224 1.0 5.0 0.03 0.06 0.06 97 1014.2
20260507011656 65 212 1.0 4.0 0.02 0.05 0.06 97 1014.4
20260507010708 65 224 1.0 4.0 0.02 0.05 0.05 96 1014.5
20260507010202 66 198 1.0 4.0 0.02 0.05 0.05 96 1014.5
20260507005656 66 201 1.0 2.0 0.01 0.04 0.04 96 1014.8
20260507005150 66 210 1.0 2.0 0.01 0.04 0.04 95 1014.8
20260507004644 66 219 1.0 2.0 0.01 0.04 0.04 95 1014.6
20260507004403 66 176 0.0 2.0 0.01 0.04 0.04 94 1014.7
20260507003632 67 224 0.0 2.0 0.01 0.04 0.04 93 1014.8
20260507003126 67 234 0.0 2.0 0.00 0.03 0.03 93 1014.9
20260507002842 67 210 0.0 1.0 0.00 0.03 0.03 93 1014.7
20260507002114 67 174 0.0 1.0 0.00 0.03 0.03 92 1014.5
20260507001608 67 210 0.0 3.0 0.00 0.03 0.03 92 1014.7
20260507001317 67 224 0.0 3.0 0.00 0.03 0.03 92 1014.6
20260507000822 67 237 0.0 2.0 0.00 0.03 0.03 91 1014.7
20260507000049 68 186 1.0 4.0 0.00 0.03 0.03 91 1014.6
20260506235544 68 226 1.0 4.0 0.00 0.03 0.03 90 1014.8
20260506235253 68 169 1.0 3.0 0.00 0.03 0.03 90 1014.6
20260506234532 68 222 1.0 3.0 0.00 0.03 0.03 89 1014.4
20260506234504 68 210 1.0 5.0 0.00 0.03 0.03 89 1014.3
20260506233519 69 259 2.0 5.0 0.00 0.03 0.03 88 1014.1
20260506233014 69 210 3.0 7.0 0.00 0.03 0.03 87 1013.9
20260506232513 69 199 3.0 7.0 0.00 0.03 0.03 87 1013.9
20260506232002 69 165 3.0 7.0 0.00 0.03 0.03 86 1014.1
20260506231456 69 154 2.0 6.0 0.00 0.03 0.03 86 1014.2
20260506230950 69 267 3.0 8.0 0.00 0.03 0.03 85 1014.1
20260506225948 70 157 3.0 8.0 0.00 0.03 0.03 85 1014.2
20260506225444 70 243 2.0 7.0 0.00 0.03 0.03 84 1014.5
20260506224946 70 221 2.0 5.0 0.00 0.03 0.03 84 1014.7
20260506224707 70 230 2.0 6.0 0.00 0.03 0.03 85 1014.7
20260506223944 70 200 2.0 6.0 0.00 0.03 0.03 84 1014.9
20260506223713 70 185 2.0 8.0 0.00 0.03 0.03 84 1015.1
20260506222943 70 184 2.0 8.0 0.00 0.03 0.03 83 1014.9
20260506222711 71 182 3.0 8.0 0.00 0.03 0.03 83 1014.9
20260506221944 71 162 3.0 8.0 0.00 0.03 0.03 83 1014.9
20260506221443 71 233 2.0 7.0 0.00 0.03 0.03 83 1014.8
20260506220943 71 149 2.0 8.0 0.00 0.03 0.03 83 1014.8
20260506220443 71 196 3.0 8.0 0.00 0.03 0.03 83 1014.8
20260506215942 71 167 3.0 8.0 0.00 0.03 0.03 83 1014.7
20260506215712 71 333 3.0 8.0 0.00 0.03 0.03 82 1014.9
20260506214938 71 147 3.0 7.0 0.00 0.03 0.03 82 1015.0
20260506214709 71 222 2.0 6.0 0.00 0.03 0.03 82 1015.0
20260506213938 71 179 1.0 6.0 0.00 0.03 0.03 83 1014.6
20260506213438 71 226 2.0 6.0 0.00 0.03 0.03 83 1014.4
20260506212934 71 237 2.0 7.0 0.00 0.03 0.03 83 1014.4
20260506212433 71 159 4.0 10.0 0.00 0.03 0.03 82 1014.2
20260506211932 71 223 5.0 10.0 0.00 0.03 0.03 82 1014.2
20260506211433 71 173 4.0 9.0 0.00 0.03 0.03 82 1014.0
20260506210934 71 200 4.0 10.0 0.00 0.03 0.03 81 1014.1
20260506210434 71 171 4.0 10.0 0.00 0.03 0.03 81 1014.4
20260506210413 72 226 3.0 10.0 0.00 0.03 0.03 81 1014.5
20260506205658 72 208 4.0 11.0 0.00 0.03 0.03 81 1014.5
20260506204931 72 260 4.0 11.0 0.00 0.03 0.03 81 1014.5
20260506204432 72 216 3.0 10.0 0.00 0.03 0.03 81 1014.6
20260506203932 72 212 4.0 10.0 0.00 0.03 0.03 81 1014.6
20260506203430 71 241 4.0 8.0 0.00 0.03 0.03 81 1014.6
20260506202932 71 191 4.0 12.0 0.00 0.03 0.03 81 1014.7
20260506202431 71 163 4.0 12.0 0.00 0.03 0.03 81 1014.6
20260506202155 71 215 5.0 13.0 0.00 0.03 0.03 81 1014.9
20260506201433 71 149 4.0 13.0 0.00 0.03 0.03 80 1014.7
20260506200934 71 220 4.0 10.0 0.00 0.03 0.03 81 1014.8
20260506200432 71 204 4.0 11.0 0.00 0.03 0.03 81 1014.9
20260506200200 71 277 4.0 11.0 0.00 0.03 0.03 81 1014.9
20260506195431 71 189 3.0 8.0 0.00 0.03 0.03 82 1014.7
20260506195156 71 223 3.0 8.0 0.00 0.03 0.03 82 1014.7